Вернуться в каталог

STARLINK-4474

АктивенСвязьVLEO
NORAD 53547·PAYLOAD·🇺🇸 United States

Запущен Aug 19, 2022 с Cape Canaveral Space Force Station

Loading…

Ближайшие Пролёты (ближайшие 24 часа)

TLE

СвежийSource: CelesTrak SupGP

Эпоха: Sep 15, 2026, 02:31 UTC

1 53547C 22101W   26258.10534722 -.00000290  00000+0 -85799-5 0  2580
2 53547  53.1579 278.9016 0001365  89.6813 212.1001 15.34395726    12

Отслеживайте STARLINK-4474 в реальном времени с AllMySat

Download on the App Store